| time (UTC) | temp F | wind direction | speed MPH | gust MPH | rain 1hr in | rain 24hr in | rain mn in | humidity % | barometer mb |
| 20260906090805 | 70 | 86 | 7.0 | 8.0 | 0.00 | 0.00 | 0.00 | 100 | 1016.3 |
| 20260906090305 | 70 | 75 | 7.0 | 10.0 | 0.00 | 0.00 | 0.00 | 100 | 1016.4 |
| 20260906085306 | 71 | 94 | 9.0 | 10.0 | 0.00 | 0.00 | 0.00 | 100 | 1016.2 |
| 20260906084805 | 71 | 82 | 6.0 | 12.0 | 0.00 | 0.00 | 0.00 | 100 | 1016.3 |
| 20260906084305 | 71 | 102 | 8.0 | 12.0 | 0.00 | 0.00 | 0.00 | 100 | 1016.2 |
| 20260906083804 | 71 | 116 | 7.0 | 10.0 | 0.00 | 0.00 | 0.00 | 100 | 1016.2 |
| 20260906082805 | 72 | 91 | 7.0 | 12.0 | 0.00 | 0.00 | 0.00 | 100 | 1016.3 |
| 20260906082306 | 72 | 126 | 7.0 | 10.0 | 0.00 | 0.00 | 0.00 | 100 | 1016.3 |
| 20260906081805 | 72 | 86 | 5.0 | 8.0 | 0.00 | 0.00 | 0.00 | 100 | 1016.4 |
| 20260906081305 | 72 | 115 | 6.0 | 8.0 | 0.00 | 0.00 | 0.00 | 100 | 1016.4 |
| 20260906080805 | 72 | 160 | 3.0 | 7.0 | 0.00 | 0.00 | 0.00 | 100 | 1016.4 |
| 20260906080306 | 72 | 103 | 2.0 | 7.0 | 0.00 | 0.00 | 0.00 | 100 | 1016.5 |
| 20260906075306 | 72 | 53 | 5.0 | 10.0 | 0.00 | 0.00 | 0.00 | 100 | 1016.5 |
| 20260906074805 | 72 | 94 | 6.0 | 10.0 | 0.00 | 0.00 | 0.00 | 100 | 1016.5 |
| 20260906074304 | 72 | 83 | 6.0 | 12.0 | 0.00 | 0.00 | 0.00 | 100 | 1016.5 |
| 20260906072306 | 73 | 66 | 5.0 | 10.0 | 0.00 | 0.00 | 0.00 | 100 | 1016.7 |
| 20260906071304 | 73 | 119 | 8.0 | 12.0 | 0.00 | 0.00 | 0.00 | 100 | 1016.6 |
| 20260906070804 | 73 | 94 | 5.0 | 8.0 | 0.00 | 0.00 | 0.00 | 100 | 1016.8 |
| 20260906070304 | 73 | 98 | 3.0 | 7.0 | 0.00 | 0.00 | 0.00 | 100 | 1016.9 |
| 20260906065805 | 73 | 75 | 3.0 | 7.0 | 0.00 | 0.00 | 0.00 | 100 | 1016.9 |
| 20260906065306 | 73 | 99 | 4.0 | 7.0 | 0.00 | 0.00 | 0.00 | 99 | 1017.0 |
| 20260906064804 | 73 | 78 | 3.0 | 10.0 | 0.00 | 0.00 | 0.00 | 98 | 1016.9 |
| 20260906064305 | 73 | 43 | 3.0 | 10.0 | 0.00 | 0.00 | 0.00 | 98 | 1016.9 |
| 20260906063805 | 73 | 53 | 7.0 | 10.0 | 0.00 | 0.00 | 0.00 | 98 | 1016.9 |
| 20260906063305 | 74 | 54 | 4.0 | 10.0 | 0.00 | 0.00 | 0.00 | 98 | 1016.7 |
| 20260906062805 | 74 | 76 | 6.0 | 10.0 | 0.00 | 0.00 | 0.00 | 98 | 1016.8 |
| 20260906062306 | 74 | 72 | 6.0 | 8.0 | 0.00 | 0.00 | 0.00 | 96 | 1016.8 |
| 20260906061804 | 74 | 83 | 3.0 | 5.0 | 0.00 | 0.00 | 0.00 | 96 | 1016.8 |
| 20260906061305 | 74 | 136 | 4.0 | 5.0 | 0.00 | 0.00 | 0.00 | 96 | 1016.8 |
| 20260906060804 | 74 | 79 | 3.0 | 5.0 | 0.00 | 0.00 | 0.00 | 95 | 1016.7 |
| 20260906060305 | 74 | 75 | 3.0 | 5.0 | 0.00 | 0.00 | 0.00 | 94 | 1016.6 |
| 20260906055805 | 74 | 117 | 4.0 | 5.0 | 0.00 | 0.00 | 0.00 | 94 | 1016.7 |
| 20260906055306 | 74 | 83 | 3.0 | 5.0 | 0.00 | 0.00 | 0.00 | 94 | 1016.6 |
| 20260906054305 | 74 | 69 | 3.0 | 7.0 | 0.00 | 0.00 | 0.00 | 94 | 1016.4 |
| 20260906053805 | 74 | 86 | 5.0 | 7.0 | 0.00 | 0.00 | 0.00 | 94 | 1016.6 |
| 20260906053304 | 75 | 93 | 5.0 | 5.0 | 0.00 | 0.00 | 0.00 | 94 | 1016.7 |
| 20260906052804 | 75 | 85 | 3.0 | 10.0 | 0.00 | 0.00 | 0.00 | 94 | 1016.6 |
| 20260906052306 | 75 | 79 | 4.0 | 10.0 | 0.00 | 0.00 | 0.00 | 94 | 1016.6 |
| 20260906051305 | 75 | 56 | 4.0 | 5.0 | 0.00 | 0.00 | 0.00 | 93 | 1016.5 |
| 20260906050818 | 75 | 74 | 2.0 | 5.0 | 0.00 | 0.00 | 0.00 | 94 | 1016.3 |
| 20260906050304 | 75 | 83 | 4.0 | 5.0 | 0.00 | 0.00 | 0.00 | 92 | 1016.3 |
| 20260906045804 | 75 | 97 | 4.0 | 7.0 | 0.00 | 0.00 | 0.00 | 92 | 1016.4 |
| 20260906045306 | 75 | 79 | 5.0 | 7.0 | 0.00 | 0.00 | 0.00 | 92 | 1016.4 |
| 20260906044804 | 75 | 89 | 5.0 | 5.0 | 0.00 | 0.00 | 0.00 | 92 | 1016.4 |
| 20260906044305 | 75 | 118 | 3.0 | 7.0 | 0.00 | 0.00 | 0.00 | 92 | 1016.3 |
| 20260906043805 | 75 | 94 | 4.0 | 7.0 | 0.00 | 0.00 | 0.00 | 92 | 1016.3 |
| 20260906043305 | 75 | 80 | 2.0 | 5.0 | 0.00 | 0.00 | 0.00 | 92 | 1016.3 |
| 20260906042804 | 75 | 110 | 3.0 | 7.0 | 0.00 | 0.00 | 0.00 | 92 | 1016.3 |
| 20260906042306 | 75 | 90 | 3.0 | 7.0 | 0.00 | 0.00 | 0.00 | 90 | 1016.3 |
| 20260906041805 | 76 | 18 | 3.0 | 7.0 | 0.00 | 0.00 | 0.00 | 91 | 1016.3 |
| 20260906041304 | 76 | 109 | 3.0 | 7.0 | 0.00 | 0.00 | 0.00 | 90 | 1016.2 |
| 20260906040805 | 76 | 105 | 3.0 | 5.0 | 0.00 | 0.00 | 0.00 | 90 | 1016.2 |
| 20260906035805 | 76 | 80 | 3.0 | 5.0 | 0.00 | 0.00 | 0.00 | 90 | 1016.3 |
| 20260906034804 | 76 | 87 | 5.0 | 12.0 | 0.00 | 0.00 | 0.00 | 90 | 1016.2 |
| 20260906034304 | 76 | 57 | 6.0 | 12.0 | 0.00 | 0.00 | 0.00 | 90 | 1016.2 |
| 20260906033804 | 76 | 61 | 4.0 | 12.0 | 0.00 | 0.00 | 0.00 | 90 | 1016.1 |
| 20260906032804 | 76 | 68 | 3.0 | 10.0 | 0.00 | 0.00 | 0.00 | 90 | 1015.9 |
| 20260906032306 | 76 | 68 | 5.0 | 10.0 | 0.00 | 0.00 | 0.00 | 90 | 1015.8 |
| 20260906031804 | 76 | 99 | 4.0 | 8.0 | 0.00 | 0.00 | 0.00 | 90 | 1015.8 |
| 20260906030804 | 76 | 89 | 5.0 | 10.0 | 0.00 | 0.00 | 0.00 | 91 | 1015.7 |
| 20260906030305 | 76 | 82 | 6.0 | 10.0 | 0.00 | 0.00 | 0.00 | 92 | 1015.8 |
| 20260906025804 | 76 | 79 | 4.0 | 8.0 | 0.00 | 0.00 | 0.00 | 92 | 1015.8 |
| 20260906025306 | 76 | 95 | 6.0 | 14.0 | 0.00 | 0.00 | 0.00 | 92 | 1015.8 |
| 20260906024304 | 77 | 83 | 7.0 | 8.0 | 0.00 | 0.00 | 0.00 | 91 | 1015.6 |
| 20260906023305 | 77 | 73 | 4.0 | 10.0 | 0.00 | 0.00 | 0.00 | 90 | 1015.3 |
| 20260906022804 | 77 | 90 | 7.0 | 10.0 | 0.00 | 0.00 | 0.00 | 90 | 1015.3 |
| 20260906022307 | 77 | 93 | 6.0 | 8.0 | 0.00 | 0.00 | 0.00 | 90 | 1015.4 |
| 20260906021805 | 77 | 111 | 5.0 | 7.0 | 0.00 | 0.00 | 0.00 | 89 | 1015.3 |
| 20260906021304 | 77 | 72 | 3.0 | 10.0 | 0.00 | 0.00 | 0.00 | 88 | 1015.2 |
| 20260906020805 | 77 | 79 | 5.0 | 10.0 | 0.00 | 0.00 | 0.00 | 88 | 1015.1 |
| 20260906020305 | 77 | 96 | 7.0 | 8.0 | 0.00 | 0.00 | 0.00 | 88 | 1014.9 |
| 20260906015306 | 78 | 117 | 6.0 | 12.0 | 0.00 | 0.00 | 0.00 | 88 | 1014.7 |
| 20260906014304 | 78 | 66 | 7.0 | 14.0 | 0.00 | 0.00 | 0.00 | 88 | 1014.7 |
| 20260906013805 | 78 | 77 | 5.0 | 8.0 | 0.00 | 0.00 | 0.00 | 88 | 1014.6 |
| 20260906013305 | 78 | 116 | 3.0 | 8.0 | 0.00 | 0.00 | 0.00 | 88 | 1014.6 |
| 20260906012805 | 78 | 85 | 5.0 | 7.0 | 0.00 | 0.00 | 0.00 | 87 | 1014.6 |
| 20260906011804 | 79 | 71 | 5.0 | 10.0 | 0.00 | 0.00 | 0.00 | 85 | 1014.5 |
| 20260906011305 | 79 | 91 | 5.0 | 10.0 | 0.00 | 0.00 | 0.00 | 85 | 1014.3 |
| 20260906010805 | 79 | 91 | 2.0 | 7.0 | 0.00 | 0.00 | 0.00 | 84 | 1014.3 |
| 20260906010305 | 79 | 114 | 2.0 | 7.0 | 0.00 | 0.00 | 0.00 | 84 | 1014.3 |
| 20260906005805 | 79 | 101 | 3.0 | 7.0 | 0.00 | 0.00 | 0.00 | 84 | 1014.3 |
| 20260906005306 | 79 | 106 | 4.0 | 5.0 | 0.00 | 0.00 | 0.00 | 83 | 1014.3 |
| 20260906004805 | 79 | 91 | 1.0 | 7.0 | 0.00 | 0.00 | 0.00 | 83 | 1014.3 |
| 20260906004305 | 79 | 92 | 3.0 | 7.0 | 0.00 | 0.00 | 0.00 | 83 | 1014.3 |
| 20260906003805 | 79 | 30 | 2.0 | 7.0 | 0.00 | 0.00 | 0.00 | 82 | 1014.3 |
| 20260906001805 | 80 | 96 | 2.0 | 14.0 | 0.00 | 0.00 | 0.00 | 82 | 1014.1 |
| 20260906001304 | 80 | 95 | 7.0 | 14.0 | 0.00 | 0.00 | 0.00 | 81 | 1014.0 |
| 20260906000805 | 80 | 77 | 7.0 | 12.0 | 0.00 | 0.00 | 0.00 | 81 | 1014.1 |
| 20260906000305 | 81 | 117 | 9.0 | 12.0 | 0.00 | 0.00 | 0.00 | 81 | 1014.1 |
| 20260905235804 | 81 | 119 | 3.0 | 10.0 | 0.00 | 0.00 | 0.00 | 81 | 1014.1 |
| 20260905234304 | 81 | 63 | 9.0 | 14.0 | 0.00 | 0.00 | 0.00 | 80 | 1014.0 |
| 20260905233804 | 82 | 88 | 8.0 | 14.0 | 0.00 | 0.00 | 0.00 | 80 | 1014.0 |
| 20260905233305 | 82 | 48 | 9.0 | 12.0 | 0.00 | 0.00 | 0.00 | 80 | 1013.9 |
| 20260905232805 | 83 | 63 | 7.0 | 12.0 | 0.00 | 0.00 | 0.00 | 80 | 1013.9 |
| 20260905232306 | 83 | 93 | 9.0 | 14.0 | 0.00 | 0.00 | 0.00 | 80 | 1013.6 |
| 20260905231804 | 83 | 93 | 10.0 | 14.0 | 0.00 | 0.00 | 0.00 | 80 | 1013.7 |
| 20260905231304 | 84 | 92 | 10.0 | 12.0 | 0.00 | 0.00 | 0.00 | 80 | 1013.6 |
| 20260905230305 | 85 | 64 | 8.0 | 12.0 | 0.00 | 0.00 | 0.00 | 79 | 1013.6 |
| 20260905225805 | 85 | 62 | 10.0 | 12.0 | 0.00 | 0.00 | 0.00 | 78 | 1013.6 |
| 20260905225306 | 85 | 36 | 11.0 | 14.0 | 0.00 | 0.00 | 0.00 | 78 | 1013.5 |
| 20260905224804 | 85 | 69 | 9.0 | 14.0 | 0.00 | 0.00 | 0.00 | 78 | 1013.4 |
| 20260905223804 | 86 | 55 | 12.0 | 14.0 | 0.00 | 0.00 | 0.00 | 76 | 1013.4 |
| 20260905223304 | 86 | 40 | 13.0 | 14.0 | 0.00 | 0.00 | 0.00 | 76 | 1013.4 |
| 20260905222804 | 87 | 88 | 8.0 | 14.0 | 0.00 | 0.00 | 0.00 | 76 | 1013.4 |
| 20260905222306 | 87 | 71 | 9.0 | 12.0 | 0.00 | 0.00 | 0.00 | 75 | 1013.3 |
| 20260905221805 | 88 | 78 | 7.0 | 15.0 | 0.00 | 0.00 | 0.00 | 74 | 1013.2 |
| 20260905220804 | 89 | 48 | 8.0 | 15.0 | 0.00 | 0.00 | 0.00 | 73 | 1013.1 |
| 20260905220305 | 89 | 70 | 12.0 | 14.0 | 0.00 | 0.00 | 0.00 | 72 | 1013.1 |
| 20260905214805 | 89 | 95 | 12.0 | 17.0 | 0.00 | 0.00 | 0.00 | 70 | 1013.1 |
| 20260905213804 | 89 | 19 | 10.0 | 14.0 | 0.00 | 0.00 | 0.00 | 70 | 1013.3 |
| 20260905213304 | 89 | 32 | 10.0 | 14.0 | 0.00 | 0.00 | 0.00 | 71 | 1013.3 |
| 20260905212804 | 89 | 30 | 10.0 | 14.0 | 0.00 | 0.00 | 0.00 | 71 | 1013.3 |
| 20260905211804 | 90 | 40 | 12.0 | 17.0 | 0.00 | 0.00 | 0.00 | 70 | 1013.3 |
| 20260905211304 | 90 | 23 | 10.0 | 12.0 | 0.00 | 0.00 | 0.00 | 69 | 1013.2 |
| 20260905210304 | 91 | 24 | 12.0 | 12.0 | 0.00 | 0.00 | 0.00 | 68 | 1013.4 |
| 20260905205306 | 91 | 15 | 6.0 | 12.0 | 0.00 | 0.00 | 0.00 | 69 | 1013.4 |
| 20260905204804 | 91 | 42 | 4.0 | 12.0 | 0.00 | 0.00 | 0.00 | 70 | 1013.3 |
| 20260905204304 | 90 | 0 | 5.0 | 12.0 | 0.00 | 0.00 | 0.00 | 69 | 1013.3 |
| 20260905203305 | 91 | 30 | 10.0 | 10.0 | 0.00 | 0.00 | 0.00 | 69 | 1013.5 |
| 20260905202804 | 92 | 353 | 6.0 | 8.0 | 0.00 | 0.00 | 0.00 | 70 | 1013.7 |
| 20260905202306 | 91 | 35 | 2.0 | 10.0 | 0.00 | 0.00 | 0.00 | 71 | 1013.8 |
| 20260905201804 | 91 | 354 | 8.0 | 10.0 | 0.00 | 0.00 | 0.00 | 69 | 1013.9 |
| 20260905201304 | 91 | 25 | 7.0 | 10.0 | 0.00 | 0.00 | 0.00 | 71 | 1013.7 |
| 20260905200804 | 90 | 28 | 9.0 | 14.0 | 0.00 | 0.00 | 0.00 | 71 | 1013.5 |
| 20260905200305 | 90 | 9 | 10.0 | 14.0 | 0.00 | 0.00 | 0.00 | 71 | 1013.6 |
| 20260905195804 | 90 | 32 | 10.0 | 14.0 | 0.00 | 0.00 | 0.00 | 72 | 1013.6 |
| 20260905195306 | 89 | 358 | 9.0 | 12.0 | 0.00 | 0.00 | 0.00 | 73 | 1013.7 |
| 20260905194805 | 90 | 19 | 10.0 | 14.0 | 0.00 | 0.00 | 0.00 | 72 | 1013.9 |
| 20260905194305 | 90 | 60 | 10.0 | 14.0 | 0.00 | 0.00 | 0.00 | 70 | 1013.9 |
| 20260905193804 | 90 | 11 | 7.0 | 14.0 | 0.00 | 0.00 | 0.00 | 72 | 1013.9 |
| 20260905193304 | 90 | 350 | 9.0 | 14.0 | 0.00 | 0.00 | 0.00 | 71 | 1014.0 |
| 20260905192804 | 90 | 350 | 12.0 | 14.0 | 0.00 | 0.00 | 0.00 | 72 | 1014.2 |
| 20260905192306 | 90 | 24 | 7.0 | 12.0 | 0.00 | 0.00 | 0.00 | 72 | 1014.3 |
| 20260905191804 | 90 | 358 | 4.0 | 12.0 | 0.00 | 0.00 | 0.00 | 72 | 1014.4 |
| 20260905191304 | 90 | 38 | 10.0 | 12.0 | 0.00 | 0.00 | 0.00 | 72 | 1014.3 |
| 20260905190804 | 90 | 14 | 7.0 | 12.0 | 0.00 | 0.00 | 0.00 | 72 | 1014.3 |
| 20260905190304 | 90 | 17 | 5.0 | 12.0 | 0.00 | 0.00 | 0.00 | 72 | 1014.3 |
| 20260905185804 | 90 | 129 | 7.0 | 8.0 | 0.00 | 0.00 | 0.00 | 72 | 1014.4 |
| 20260905185306 | 90 | 59 | 8.0 | 10.0 | 0.00 | 0.00 | 0.00 | 72 | 1014.3 |
| 20260905184804 | 89 | 72 | 5.0 | 10.0 | 0.00 | 0.00 | 0.00 | 73 | 1014.4 |
| 20260905184304 | 89 | 85 | 3.0 | 8.0 | 0.00 | 0.00 | 0.00 | 73 | 1014.5 |
| 20260905183304 | 89 | 82 | 3.0 | 10.0 | 0.00 | 0.00 | 0.00 | 73 | 1014.6 |
| 20260905182804 | 90 | 68 | 6.0 | 8.0 | 0.00 | 0.00 | 0.00 | 72 | 1014.6 |
| 20260905182306 | 89 | 92 | 5.0 | 8.0 | 0.00 | 0.00 | 0.00 | 73 | 1014.5 |
| 20260905181804 | 89 | 66 | 2.0 | 8.0 | 0.00 | 0.00 | 0.00 | 73 | 1014.4 |
| 20260905181304 | 89 | 19 | 7.0 | 8.0 | 0.00 | 0.00 | 0.00 | 72 | 1014.4 |
| 20260905180804 | 89 | 84 | 5.0 | 8.0 | 0.00 | 0.00 | 0.00 | 74 | 1014.5 |
| 20260905175804 | 89 | 94 | 7.0 | 8.0 | 0.00 | 0.00 | 0.00 | 74 | 1014.5 |
| 20260905175306 | 89 | 87 | 5.0 | 8.0 | 0.00 | 0.00 | 0.00 | 75 | 1014.6 |
| 20260905174804 | 88 | 66 | 3.0 | 8.0 | 0.00 | 0.00 | 0.00 | 75 | 1014.4 |
| 20260905174304 | 88 | 121 | 5.0 | 8.0 | 0.00 | 0.00 | 0.00 | 74 | 1014.4 |
| 20260905173804 | 89 | 128 | 7.0 | 8.0 | 0.00 | 0.00 | 0.00 | 74 | 1014.3 |
| 20260905173304 | 89 | 74 | 8.0 | 8.0 | 0.00 | 0.00 | 0.00 | 74 | 1014.3 |
| 20260905172804 | 89 | 96 | 6.0 | 10.0 | 0.00 | 0.00 | 0.00 | 74 | 1014.3 |
| 20260905172305 | 89 | 71 | 7.0 | 10.0 | 0.00 | 0.00 | 0.00 | 74 | 1014.3 |
| 20260905171804 | 88 | 47 | 5.0 | 7.0 | 0.00 | 0.00 | 0.00 | 74 | 1014.3 |
| 20260905171305 | 88 | 146 | 3.0 | 8.0 | 0.00 | 0.00 | 0.00 | 75 | 1014.4 |
| 20260905170804 | 88 | 78 | 6.0 | 12.0 | 0.00 | 0.00 | 0.00 | 74 | 1014.5 |
| 20260905170304 | 88 | 77 | 6.0 | 12.0 | 0.00 | 0.00 | 0.00 | 74 | 1014.5 |
| 20260905165306 | 87 | 85 | 5.0 | 12.0 | 0.00 | 0.00 | 0.00 | 75 | 1014.6 |
| 20260905164804 | 87 | 130 | 5.0 | 12.0 | 0.00 | 0.00 | 0.00 | 75 | 1014.6 |
| 20260905163805 | 87 | 33 | 10.0 | 12.0 | 0.00 | 0.00 | 0.00 | 73 | 1014.6 |
| 20260905162804 | 88 | 37 | 8.0 | 10.0 | 0.00 | 0.00 | 0.00 | 74 | 1014.6 |
| 20260905162306 | 87 | 82 | 7.0 | 8.0 | 0.00 | 0.00 | 0.00 | 75 | 1014.7 |
| 20260905161804 | 87 | 126 | 6.0 | 10.0 | 0.00 | 0.00 | 0.00 | 75 | 1014.7 |
| 20260905160804 | 86 | 26 | 8.0 | 10.0 | 0.00 | 0.00 | 0.00 | 76 | 1014.6 |
| 20260905160304 | 86 | 17 | 8.0 | 8.0 | 0.00 | 0.00 | 0.00 | 77 | 1014.6 |
| 20260905155804 | 86 | 60 | 5.0 | 10.0 | 0.00 | 0.00 | 0.00 | 77 | 1014.6 |
| 20260905155306 | 86 | 42 | 10.0 | 10.0 | 0.00 | 0.00 | 0.00 | 76 | 1014.6 |
| 20260905154804 | 86 | 92 | 5.0 | 10.0 | 0.00 | 0.00 | 0.00 | 78 | 1014.7 |
| 20260905154304 | 86 | 64 | 10.0 | 10.0 | 0.00 | 0.00 | 0.00 | 77 | 1014.8 |
| 20260905153804 | 86 | 72 | 9.0 | 10.0 | 0.00 | 0.00 | 0.00 | 77 | 1014.8 |
| 20260905153304 | 86 | 56 | 9.0 | 10.0 | 0.00 | 0.00 | 0.00 | 77 | 1014.8 |
| 20260905152804 | 86 | 50 | 10.0 | 10.0 | 0.00 | 0.00 | 0.00 | 79 | 1014.8 |
| 20260905151804 | 85 | 16 | 9.0 | 12.0 | 0.00 | 0.00 | 0.00 | 79 | 1014.6 |
| 20260905151304 | 85 | 37 | 10.0 | 12.0 | 0.00 | 0.00 | 0.00 | 80 | 1014.6 |
| 20260905150304 | 84 | 7 | 10.0 | 12.0 | 0.00 | 0.00 | 0.00 | 82 | 1014.5 |
| 20260905145804 | 84 | 27 | 6.0 | 12.0 | 0.00 | 0.00 | 0.00 | 82 | 1014.5 |
| 20260905144804 | 84 | 71 | 8.0 | 10.0 | 0.00 | 0.00 | 0.00 | 83 | 1014.4 |
| 20260905144304 | 84 | 5 | 5.0 | 10.0 | 0.00 | 0.00 | 0.00 | 84 | 1014.2 |
| 20260905142804 | 84 | 24 | 8.0 | 10.0 | 0.00 | 0.00 | 0.00 | 84 | 1014.2 |
| 20260905142306 | 84 | 349 | 7.0 | 8.0 | 0.00 | 0.00 | 0.00 | 84 | 1014.1 |
| 20260905141804 | 84 | 26 | 6.0 | 8.0 | 0.00 | 0.00 | 0.00 | 86 | 1014.1 |
| 20260905140804 | 83 | 0 | 2.0 | 7.0 | 0.00 | 0.00 | 0.00 | 90 | 1014.0 |
| 20260905140304 | 82 | 38 | 2.0 | 3.0 | 0.00 | 0.00 | 0.00 | 92 | 1013.8 |
| 20260905135804 | 81 | 38 | 2.0 | 3.0 | 0.00 | 0.00 | 0.00 | 95 | 1013.9 |
| 20260905135306 | 81 | 38 | 1.0 | 5.0 | 0.00 | 0.00 | 0.00 | 98 | 1013.9 |
| 20260905134804 | 80 | 38 | 2.0 | 5.0 | 0.00 | 0.00 | 0.00 | 99 | 1014.0 |
| 20260905134304 | 80 | 39 | 2.0 | 5.0 | 0.00 | 0.00 | 0.00 | 100 | 1013.9 |
| 20260905133804 | 79 | 39 | 4.0 | 5.0 | 0.00 | 0.00 | 0.00 | 100 | 1013.7 |
| 20260905133304 | 79 | 39 | 0.0 | 3.0 | 0.00 | 0.00 | 0.00 | 100 | 1013.7 |
| 20260905132804 | 78 | 39 | 1.0 | 3.0 | 0.00 | 0.00 | 0.00 | 100 | 1013.7 |
| 20260905132306 | 78 | 39 | 1.0 | 7.0 | 0.00 | 0.00 | 0.00 | 100 | 1013.7 |
| 20260905131804 | 78 | 39 | 6.0 | 7.0 | 0.00 | 0.00 | 0.00 | 100 | 1013.6 |
| 20260905130804 | 77 | 27 | 3.0 | 5.0 | 0.00 | 0.00 | 0.00 | 100 | 1013.4 |
| 20260905130304 | 77 | 20 | 2.0 | 3.0 | 0.00 | 0.00 | 0.00 | 100 | 1013.3 |
| 20260905125306 | 77 | 5 | 2.0 | 7.0 | 0.00 | 0.00 | 0.00 | 100 | 1013.4 |
| 20260905124804 | 76 | 0 | 5.0 | 7.0 | 0.00 | 0.00 | 0.00 | 100 | 1013.4 |
| 20260905124304 | 76 | 48 | 6.0 | 7.0 | 0.00 | 0.00 | 0.00 | 100 | 1013.4 |
| 20260905123804 | 76 | 22 | 4.0 | 5.0 | 0.00 | 0.00 | 0.00 | 100 | 1013.3 |
| 20260905122804 | 75 | 23 | 0.0 | 0.0 | 0.00 | 0.00 | 0.00 | 100 | 1013.1 |
| 20260905122306 | 75 | 23 | 0.0 | 0.0 | 0.00 | 0.00 | 0.00 | 100 | 1013.1 |
| 20260905121804 | 75 | 23 | 0.0 | 0.0 | 0.00 | 0.00 | 0.00 | 100 | 1013.2 |
| 20260905121304 | 74 | 23 | 0.0 | 0.0 | 0.00 | 0.00 | 0.00 | 100 | 1013.1 |
| 20260905120804 | 74 | 23 | 0.0 | 0.0 | 0.00 | 0.00 | 0.00 | 100 | 1013.1 |
| 20260905115804 | 74 | 23 | 0.0 | 0.0 | 0.00 | 0.00 | 0.00 | 100 | 1013.1 |
| 20260905115306 | 74 | 23 | 0.0 | 0.0 | 0.00 | 0.00 | 0.00 | 100 | 1012.9 |
| 20260905113304 | 74 | 23 | 0.0 | 0.0 | 0.00 | 0.00 | 0.00 | 100 | 1012.8 |
| 20260905112305 | 74 | 23 | 0.0 | 0.0 | 0.00 | 0.00 | 0.00 | 100 | 1012.8 |
| 20260905111804 | 74 | 23 | 0.0 | 0.0 | 0.00 | 0.00 | 0.00 | 100 | 1012.7 |
| 20260905110803 | 75 | 23 | 0.0 | 0.0 | 0.00 | 0.00 | 0.00 | 100 | 1012.5 |
| 20260905110304 | 75 | 22 | 0.0 | 0.0 | 0.00 | 0.00 | 0.00 | 100 | 1012.5 |
| 20260905105804 | 75 | 22 | 0.0 | 0.0 | 0.00 | 0.00 | 0.00 | 100 | 1012.6 |
| 20260905105306 | 75 | 23 | 0.0 | 0.0 | 0.00 | 0.00 | 0.00 | 100 | 1012.6 |
| 20260905104304 | 75 | 23 | 0.0 | 0.0 | 0.00 | 0.00 | 0.00 | 100 | 1012.5 |
| 20260905103804 | 75 | 23 | 0.0 | 0.0 | 0.00 | 0.00 | 0.00 | 100 | 1012.4 |
| 20260905103304 | 75 | 23 | 0.0 | 0.0 | 0.00 | 0.00 | 0.00 | 100 | 1012.4 |
| 20260905102804 | 75 | 23 | 0.0 | 0.0 | 0.00 | 0.00 | 0.00 | 100 | 1012.4 |
| 20260905102306 | 75 | 23 | 0.0 | 0.0 | 0.00 | 0.00 | 0.00 | 100 | 1012.4 |
| 20260905101803 | 75 | 23 | 0.0 | 0.0 | 0.00 | 0.00 | 0.00 | 100 | 1012.4 |
| 20260905101304 | 75 | 23 | 0.0 | 0.0 | 0.00 | 0.00 | 0.00 | 100 | 1012.5 |
| 20260905100803 | 75 | 23 | 0.0 | 0.0 | 0.00 | 0.00 | 0.00 | 100 | 1012.5 |
| 20260905100304 | 75 | 23 | 0.0 | 0.0 | 0.00 | 0.00 | 0.00 | 100 | 1012.6 |
| 20260905095804 | 75 | 23 | 0.0 | 0.0 | 0.00 | 0.00 | 0.00 | 100 | 1012.6 |
| 20260905095306 | 75 | 23 | 0.0 | 0.0 | 0.00 | 0.00 | 0.00 | 100 | 1012.5 |
| 20260905094804 | 75 | 23 | 0.0 | 0.0 | 0.00 | 0.00 | 0.00 | 100 | 1012.6 |
| 20260905094304 | 75 | 23 | 0.0 | 0.0 | 0.00 | 0.00 | 0.00 | 100 | 1012.6 |
| 20260905092804 | 76 | 23 | 0.0 | 0.0 | 0.00 | 0.00 | 0.00 | 100 | 1012.6 |
| 20260905092306 | 76 | 23 | 0.0 | 0.0 | 0.00 | 0.00 | 0.00 | 100 | 1012.7 |
| 20260905091804 | 76 | 23 | 0.0 | 0.0 | 0.00 | 0.00 | 0.00 | 100 | 1012.8 |
| 20260905091304 | 76 | 23 | 0.0 | 0.0 | 0.00 | 0.00 | 0.00 | 100 | 1012.8 |